EW3244 Weather Reports


Display with metric or nautical units.
time (UTC)temp
F
wind
direction
speed
MPH
gust
MPH
rain 1hr
in
rain 24hr
in
rain mn
in
humidity
%
barometer
mb
20260505041541 44 85 4.0 11.0 0.00 0.05 0.00 83 1005.3
20260505040030 44 76 5.0 10.0 0.00 0.13 0.00 83 1005.1
20260505034527 44 56 7.0 13.0 0.00 0.13 0.00 83 1005.0
20260505033027 43 78 5.0 11.0 0.00 0.13 0.00 83 1004.9
20260505031525 43 66 6.0 17.0 0.00 0.13 0.00 83 1004.9
20260505030024 43 33 5.0 13.0 0.00 0.23 0.00 83 1004.9
20260505024523 43 71 8.0 14.0 0.00 0.23 0.00 83 1004.8
20260505023022 43 53 6.0 12.0 0.00 0.23 0.00 83 1004.8
20260505021519 43 52 7.0 12.0 0.00 0.23 0.00 83 1004.7
20260505020023 43 43 7.0 13.0 0.00 0.24 0.00 82 1004.7
20260505014530 44 55 6.0 15.0 0.00 0.24 0.00 82 1004.7
20260505013014 44 66 10.0 14.0 0.00 0.24 0.00 81 1004.7
20260505011512 44 47 7.0 18.0 0.00 0.24 0.00 80 1004.6
20260505010010 44 66 8.0 16.0 0.00 0.24 0.00 80 1004.7
20260505004510 44 33 8.0 19.0 0.00 0.24 0.00 79 1004.6
20260505003007 44 52 8.0 13.0 0.00 0.24 0.00 78 1004.7
20260505001505 45 64 9.0 14.0 0.00 0.24 0.00 78 1004.6
20260505000004 45 36 9.0 18.0 0.00 0.24 0.00 77 1004.5
20260504234601 45 71 7.0 15.0 0.00 0.24 0.00 76 1004.6
20260504233100 45 45 8.0 12.0 0.00 0.24 0.00 74 1004.6
20260504231555 46 60 9.0 15.0 0.00 0.24 0.00 73 1004.6
20260504230053 46 29 9.0 13.0 0.00 0.24 0.00 71 1004.6
20260504224550 46 64 7.0 13.0 0.00 0.24 0.00 68 1004.7
20260504223100 46 50 9.0 14.0 0.00 0.24 0.00 66 1004.6
20260504221545 46 43 6.0 12.0 0.00 0.24 0.00 63 1004.7
20260504220041 46 34 8.0 14.0 0.00 0.24 0.24 61 1004.7
20260504214539 47 53 5.0 9.0 0.00 0.24 0.24 58 1004.7
20260504213038 47 50 5.0 13.0 0.00 0.24 0.24 56 1004.8
20260504211556 47 41 5.0 9.0 0.00 0.24 0.24 55 1004.7
20260504210042 48 40 4.0 7.0 0.00 0.24 0.24 54 1004.7
20260504204535 47 39 4.0 8.0 0.00 0.24 0.24 55 1004.6
20260504203034 49 45 5.0 8.0 0.00 0.24 0.24 51 1004.7
20260504201532 49 37 4.0 8.0 0.00 0.24 0.24 50 1004.6
20260504200032 49 43 5.0 8.0 0.00 0.24 0.24 50 1004.6
20260504194531 50 48 3.0 5.0 0.00 0.24 0.24 50 1004.7
20260504193031 50 52 2.0 4.0 0.00 0.24 0.24 49 1004.5
20260504191534 51 40 3.0 6.0 0.00 0.24 0.24 48 1004.5
20260504190029 51 60 3.0 6.0 0.00 0.24 0.24 49 1004.5
20260504184542 52 57 2.0 5.0 0.00 0.24 0.24 48 1004.4
20260504183030 54 62 2.0 6.0 0.00 0.24 0.24 45 1004.3
20260504181531 54 71 4.0 10.0 0.00 0.24 0.24 44 1004.3
20260504180027 55 76 4.0 11.0 0.00 0.24 0.24 43 1004.2
20260504174526 56 92 7.0 16.0 0.00 0.24 0.24 42 1004.0
20260504173021 56 95 6.0 15.0 0.00 0.24 0.24 43 1003.9
20260504171517 56 86 9.0 17.0 0.00 0.24 0.24 42 1004.0
20260504081515 54 59 6.0 9.0 0.00 0.24 0.24 79 1003.0